STARLINK-34092 (63904 NORAD) Tracking and Keplerian Element Data

This shows tracking and keplerian element data for the satellite.

Feedback or suggestion? Click here.




ElementValue
Catalog63904
NameSTARLINK-34092
Epoch Orbit3561
Epoch Day354.17263251
Epoch Year2025
RAAN265.5584
Inclination42.9992
Eccentricity0.0003462
Argument of Perigee245.9223
Mean Anonmoly114.1267
Mean Motion15.27602052
Decay Rate0.00018906
L11 63904U 25095Q 25354.17263251 .00018906 00000+0 69425-3 0 9991
L22 63904 42.9992 265.5584 0003462 245.9223 114.1267 15.27602052 35613



Live tracking and technical data element details for STARLINK-34092 (NORAD 63904). STARLINK-34092 can be tracked NOW for your location showing map with azimuth and elevation plus other details from your city location.







IsCatalogInMostPopularTable: catalog: 63904, numindb: 7
Update: records affected: 1



GetName: 63904 STARLINK-34092

Hit Count: updated at: Tue, 21 Apr 2026 19:30:59 GMT